Location: *
(40.7873°S, 98.7174°E)
Time: 23:42:14
(UTC+00:00)

ARIANE 6 FM1 Upper Stage - Pass Details

Date: 21 December 2025
Orbit: 522 x 610 km, 62.0° (Epoch: 20 January)

Event Time Altitude Azimuth Distance (km) Brightness Sun altitude
Rises 18:50:34 0° 227° (SW) 2,899 6.6 -22.7°
Reaches altitude 10° 18:53:06 10° 238° (WSW) 1,979 5.5 -22.5°
Enters shadow 18:55:08 21° 258° (WSW) 1,370 4.5 -22.3°
